Location: Makakahi
(40.6833°S, 175.6000°E)
Time: 01:09:00
(UTC+00:00)

Resurs 01 Rocket - Visible Passes

Search period start: 05 October 2024 00:00
Search period end: 15 October 2024 00:00
Orbit: 629 x 640 km, 97.8° (Epoch: 04 October)

Date Brightness Start Highest point End Pass type
(mag) Time Alt. Az. Time Alt. Az. Time Alt. Az.
05 Oct 2.8 08:57:26 10° SSE 09:00:08 36° SSE 09:00:08 36° SSE visible
06 Oct 3.8 07:44:22 10° ESE 07:44:44 11° ESE 07:44:44 11° ESE visible
06 Oct 3.0 09:19:13 10° S 09:22:12 37° SSW 09:22:12 37° SSW visible
07 Oct 3.3 08:05:03 10° SE 08:06:49 19° ESE 08:06:49 19° ESE visible
07 Oct 3.5 09:41:12 10° S 09:44:17 28° SW 09:44:17 28° SW visible
08 Oct 2.8 08:26:16 10° SSE 08:28:54 30° SE 08:28:54 30° SE visible
08 Oct 4.1 10:03:29 10° SSW 10:06:22 19° WSW 10:06:22 19° WSW visible
09 Oct 2.3 08:47:44 10° SSE 08:50:58 45° SSE 08:50:58 45° SSE visible
09 Oct 4.6 10:26:29 10° SW 10:28:00 12° WSW 10:28:26 11° WSW visible
10 Oct 2.3 09:09:25 10° S 09:13:01 52° SSW 09:13:01 52° SSW visible
11 Oct 3.3 07:55:38 10° SE 07:57:36 18° ESE 07:57:36 18° ESE visible
11 Oct 3.0 09:31:17 10° S 09:35:04 37° WSW 09:35:04 37° WSW visible
12 Oct 2.6 08:16:38 10° SSE 08:19:39 29° ESE 08:19:39 29° ESE visible
12 Oct 3.8 09:53:22 10° SSW 09:56:55 23° WSW 09:57:07 23° WSW visible
13 Oct 1.9 08:37:59 10° SSE 08:41:41 50° ESE 08:41:41 50° ESE visible
13 Oct 4.4 10:15:55 10° SSW 10:18:19 14° WSW 10:19:09 14° WSW visible
14 Oct 1.7 08:59:32 10° S 09:03:43 74° SSW 09:03:43 74° SSW visible
